Irish Sea — WDB5555 — position and weather

sailwx.info

Track history (hours):
 
Tides and Currents Weather Stations Pressure Air Temp Water Temp Dewpoint Dewpoint Depression Visibility Wind Speed Wind Dir Waves Ship Positions

Irish Sea

More information available from US FCC via Universal Licensing System and Coast Guard Vessel Documentation Center.

Last reported at 2014-Jul-25 13:34 UTC. Time now 2014-Jul-25 13:45 UTC.
Position N 41°08' W 072°36'.

Length 152 m; draft 6.8 m.

Type: Ship (hazmat cat B). MMSI: 366910920.

Date/timePositionNaut miles runAvg speedWind from/ knotsBaromVisibWave heightAir tempDewpointWater temp
2014-Jul-25 13:34N 41°08' W 072°36'1211.5
2014-Jul-25 12:33N 41°11' W 072°22'1211.6
2014-Jul-25 11:33N 41°14' W 072°07'1010.2
2014-Jul-25 10:33N 41°15' W 071°54'1010.2
2014-Jul-25 09:33N 41°17' W 071°40'10 9.5
2014-Jul-25 08:33N 41°18' W 071°28'10 9.7
2014-Jul-25 07:33N 41°27' W 071°23'10 9.5
2014-Jul-25 06:29N 41°37' W 071°18'9 9.2
2014-Jul-25 05:34N 41°45' W 071°22'4 0.2
2014-Jul-24 11:26N 41°49' W 071°24'0 0.0
2014-Jul-24 10:33N 41°49' W 071°24'1 0.3
2014-Jul-24 06:31N 41°48' W 071°23'7 6.9
2014-Jul-24 05:34N 41°42' W 071°19'7 7.3
2014-Jul-24 04:33N 41°34' W 071°19'7 7.0
2014-Jul-24 03:33N 41°28' W 071°22'7 7.1
2014-Jul-24 02:33N 41°21' W 071°21'8 7.6
2014-Jul-24 01:33N 41°13' W 071°21'8 7.6
2014-Jul-24 00:33N 41°06' W 071°26'8 8.0
2014-Jul-23 23:34N 41°01' W 071°34'8 8.0
2014-Jul-23 22:33N 40°56' W 071°42'8 8.1
2014-Jul-23 21:33N 40°51' W 071°50'8 8.0
2014-Jul-23 20:33N 40°46' W 071°58'8 8.0
2014-Jul-23 19:33N 40°41' W 072°07'8 7.9
2014-Jul-23 18:33N 40°37' W 072°15'8 7.8
2014-Jul-23 17:33N 40°32' W 072°23'8 7.8
2014-Jul-23 16:33N 40°27' W 072°31'8 7.7
2014-Jul-23 15:33N 40°22' W 072°39'8 7.7
2014-Jul-23 14:32N 40°17' W 072°47'8 7.8
2014-Jul-23 13:33N 40°12' W 072°55'8 7.9
2014-Jul-23 12:33N 40°07' W 073°03'8 7.9
2014-Jul-23 11:33N 40°02' W 073°11'8 7.9
2014-Jul-23 10:33N 39°57' W 073°19'8 7.8
2014-Jul-23 09:33N 39°52' W 073°26'8 7.8
2014-Jul-23 08:33N 39°47' W 073°34'8 7.8
2014-Jul-23 07:33N 39°43' W 073°43'8 7.8
2014-Jul-23 06:33N 39°38' W 073°50'8 7.8
2014-Jul-23 05:33N 39°33' W 073°58'8 7.7
2014-Jul-23 04:33N 39°28' W 074°06'8 7.5
2014-Jul-23 03:32N 39°23' W 074°13'9 7.4
2014-Jul-23 02:22N 39°16' W 074°21'6 7.5
2014-Jul-23 01:31N 39°11' W 074°26'9 7.7
2014-Jul-23 00:19N 39°04' W 074°34'6 7.5
2014-Jul-22 23:33N 39°00' W 074°39'  
2014-Jul-19 22:32N 39°29' W 074°10'9 9.4
2014-Jul-19 21:33N 39°37' W 074°04'10 9.5
2014-Jul-19 20:33N 39°45' W 073°59'54 9.0
2014-Jul-19 14:33N 40°39' W 074°03'1 1.0
2014-Jul-19 13:31N 40°40' W 074°04'0 0.0
2014-Jul-19 12:31N 40°40' W 074°04'0 0.0
2014-Jul-19 11:31N 40°40' W 074°04'0 0.0
2014-Jul-19 10:31N 40°40' W 074°04'0 0.0
2014-Jul-19 09:31N 40°40' W 074°04'0 0.0
2014-Jul-19 08:31N 40°40' W 074°04'0 0.0
2014-Jul-19 07:31N 40°40' W 074°04'0 0.0
2014-Jul-19 06:31N 40°40' W 074°04'0 0.0
2014-Jul-19 05:31N 40°40' W 074°04'0 0.0
2014-Jul-19 04:31N 40°40' W 074°04'0 0.0
2014-Jul-19 03:31N 40°40' W 074°04'0 0.0
2014-Jul-19 02:31N 40°40' W 074°04'0 0.3
2014-Jul-19 01:32N 40°40' W 074°04'  
2014-Jul-16 20:11N 40°44' W 074°01'4 6.5
2014-Jul-16 19:33N 40°40' W 074°03'7 6.3
2014-Jul-16 18:31N 40°33' W 074°02'44 6.8
2014-Jul-16 12:06N 39°50' W 073°57'4 7.7
2014-Jul-16 11:33N 39°46' W 073°58'8 7.5
2014-Jul-16 10:33N 39°39' W 074°02'7 7.4
2014-Jul-16 09:33N 39°32' W 074°06'  
Track history (hours):
 
Tides and Currents Weather Stations Pressure Air Temp Water Temp Dewpoint Dewpoint Depression Visibility Wind Speed Wind Dir Waves Ship Positions

Irish Sea

More information available from US FCC via Universal Licensing System and Coast Guard Vessel Documentation Center.

Last reported at 2014-Jul-25 13:34 UTC. Time now 2014-Jul-25 13:45 UTC.
Position N 41°08' W 072°36'.

Length 152 m; draft 6.8 m.

Type: Ship (hazmat cat B). MMSI: 366910920.

Date/timePositionNaut miles runAvg speedWind from/ knotsBaromVisibWave heightAir tempDewpointWater temp
2014-Jul-25 13:34N 41°08' W 072°36'1211.5
2014-Jul-25 12:33N 41°11' W 072°22'1211.6
2014-Jul-25 11:33N 41°14' W 072°07'1010.2
2014-Jul-25 10:33N 41°15' W 071°54'1010.2
2014-Jul-25 09:33N 41°17' W 071°40'10 9.5
2014-Jul-25 08:33N 41°18' W 071°28'10 9.7
2014-Jul-25 07:33N 41°27' W 071°23'10 9.5
2014-Jul-25 06:29N 41°37' W 071°18'9 9.2
2014-Jul-25 05:34N 41°45' W 071°22'4 0.2
2014-Jul-24 11:26N 41°49' W 071°24'0 0.0
2014-Jul-24 10:33N 41°49' W 071°24'1 0.3
2014-Jul-24 06:31N 41°48' W 071°23'7 6.9
2014-Jul-24 05:34N 41°42' W 071°19'7 7.3
2014-Jul-24 04:33N 41°34' W 071°19'7 7.0
2014-Jul-24 03:33N 41°28' W 071°22'7 7.1
2014-Jul-24 02:33N 41°21' W 071°21'8 7.6
2014-Jul-24 01:33N 41°13' W 071°21'8 7.6
2014-Jul-24 00:33N 41°06' W 071°26'8 8.0
2014-Jul-23 23:34N 41°01' W 071°34'8 8.0
2014-Jul-23 22:33N 40°56' W 071°42'8 8.1
2014-Jul-23 21:33N 40°51' W 071°50'8 8.0
2014-Jul-23 20:33N 40°46' W 071°58'8 8.0
2014-Jul-23 19:33N 40°41' W 072°07'8 7.9
2014-Jul-23 18:33N 40°37' W 072°15'8 7.8
2014-Jul-23 17:33N 40°32' W 072°23'8 7.8
2014-Jul-23 16:33N 40°27' W 072°31'8 7.7
2014-Jul-23 15:33N 40°22' W 072°39'8 7.7
2014-Jul-23 14:32N 40°17' W 072°47'8 7.8
2014-Jul-23 13:33N 40°12' W 072°55'8 7.9
2014-Jul-23 12:33N 40°07' W 073°03'8 7.9
2014-Jul-23 11:33N 40°02' W 073°11'8 7.9
2014-Jul-23 10:33N 39°57' W 073°19'8 7.8
2014-Jul-23 09:33N 39°52' W 073°26'8 7.8
2014-Jul-23 08:33N 39°47' W 073°34'8 7.8
2014-Jul-23 07:33N 39°43' W 073°43'8 7.8
2014-Jul-23 06:33N 39°38' W 073°50'8 7.8
2014-Jul-23 05:33N 39°33' W 073°58'8 7.7
2014-Jul-23 04:33N 39°28' W 074°06'8 7.5
2014-Jul-23 03:32N 39°23' W 074°13'9 7.4
2014-Jul-23 02:22N 39°16' W 074°21'6 7.5
2014-Jul-23 01:31N 39°11' W 074°26'9 7.7
2014-Jul-23 00:19N 39°04' W 074°34'6 7.5
2014-Jul-22 23:33N 39°00' W 074°39'  
2014-Jul-19 22:32N 39°29' W 074°10'9 9.4
2014-Jul-19 21:33N 39°37' W 074°04'10 9.5
2014-Jul-19 20:33N 39°45' W 073°59'54 9.0
2014-Jul-19 14:33N 40°39' W 074°03'1 1.0
2014-Jul-19 13:31N 40°40' W 074°04'0 0.0
2014-Jul-19 12:31N 40°40' W 074°04'0 0.0
2014-Jul-19 11:31N 40°40' W 074°04'0 0.0
2014-Jul-19 10:31N 40°40' W 074°04'0 0.0
2014-Jul-19 09:31N 40°40' W 074°04'0 0.0
2014-Jul-19 08:31N 40°40' W 074°04'0 0.0
2014-Jul-19 07:31N 40°40' W 074°04'0 0.0
2014-Jul-19 06:31N 40°40' W 074°04'0 0.0
2014-Jul-19 05:31N 40°40' W 074°04'0 0.0
2014-Jul-19 04:31N 40°40' W 074°04'0 0.0
2014-Jul-19 03:31N 40°40' W 074°04'0 0.0
2014-Jul-19 02:31N 40°40' W 074°04'0 0.3
2014-Jul-19 01:32N 40°40' W 074°04'  
2014-Jul-16 20:11N 40°44' W 074°01'4 6.5
2014-Jul-16 19:33N 40°40' W 074°03'7 6.3
2014-Jul-16 18:31N 40°33' W 074°02'44 6.8
2014-Jul-16 12:06N 39°50' W 073°57'4 7.7
2014-Jul-16 11:33N 39°46' W 073°58'8 7.5
2014-Jul-16 10:33N 39°39' W 074°02'7 7.4
2014-Jul-16 09:33N 39°32' W 074°06'  

Dump ship's entire track history